User: anonymous   Login
Location: Blackrock Ranger Station
(36.0936°N, 118.2611°W)
Time: 18:50:48
(UTC-08:00)
Language:

AO-7 - Orbit

View from above orbital plane
View from above orbital plane
View from above satellite
View from above satellite

Ground track
Ground track

The orbit is defined by the following mean orbital elements,

1 07530U          26049.89501455 +.00000000 +00000-0 -44950-4 0 00003
2 07530 101.9973  61.8827 0012165 358.3557 119.0568 12.53695919    00
Epoch (UTC): 18 February 2026 21:28:49
Eccentricity: 0.0012165
inclination: 101.9973°
perigee height: 1440 km
apogee height: 1459 km
right ascension of ascending node: 61.8827°
argument of perigee: 358.3557°
revolutions per day: 12.53695919
mean anomaly at epoch: 119.0568°

The dashed part of the orbit path shows where the satellite is in the earth's shadow,  

DLR